Regional Weather Roundup
Issued by NWS Melbourne, FL

Current Version | Previous Version | Text Only | Print | Product List | Glossary On
Versions: 1 2 3 4 5 6 7 8 9 10 11 12 13 14 15 16 17 18 19 20 21 22 23 24 25 26 27
000
ASUS42 KMLB 182007
RWRMLB
HOURLY WEATHER ROUNDUP AROUND FLORIDA
NATIONAL WEATHER SERVICE OFFICE MELBOURNE FL
300 PM EST SAT NOV 18 2017

CITY           SKY/WX    TMP DP  RH WIND       PRES   REMARKS
MELBOURNE      SUNNY     79  58  48 E9        29.93F
FORT PIERCE    SUNNY     78  60  53 SE13      29.93F
ORLANDO INTL   MOSUNNY   78  56  46 SE6       29.93F
DAYTONA BEACH  MOSUNNY   79  56  45 SW8       29.93F
VERO BEACH     SUNNY     79  59  50 E10       29.94F
$$
...ELSEWHERE ACROSS CENTRAL FLORIDA...

CITY           SKY/WX    TMP DP  RH WIND       PRES   REMARKS
PATRICK AFB    SUNNY     77  61  57 E8        29.93F
KSC            SUNNY     78  57  48 SE5       29.92F
CAPE CANAVERAL SUNNY     78  57  48 SE7       29.92F
TITUSVILLE     MOSUNNY   81  57  44 E7        29.94F
ORLANDO EXEC   MOSUNNY   80  56  43 S6        29.93F
LEESBURG       SUNNY     80  51  36 SW6       29.94F
THE VILLAGES     N/A     79  54  41 MISG      29.84F
SANFORD        MOSUNNY   79  54  41 CALM      29.93F
DELAND         PTSUNNY   79  55  44 SW13      29.93F
NEW SMYRNA BCH MOSUNNY   75  59  57 E9        29.95F
ORMOND BEACH   MOSUNNY   75  57  53 SE7       29.93F
WINTER HAVEN   SUNNY     79  51  37 W3        29.95F
KISSIMMEE      SUNNY     79  57  46 SE9       29.94F
OKEECHOBEE     SUNNY     79  59  50 S5        29.93F
TAMPA          MOSUNNY   78  54  43 SW5       29.95F
$$
...NORTHERN FLORIDA...

CITY           SKY/WX    TMP DP  RH WIND       PRES   REMARKS
PALM COAST     MOSUNNY   79  54  41 S9        29.93F
ST AUGUSTINE   MOSUNNY   74  61  63 SE9       29.93F
OCALA          MOSUNNY   79  55  43 SW9       29.94F
GAINESVILLE    PTSUNNY   76  53  44 S8        29.95F
JACKSONVILLE   MOSUNNY   79  52  38 SW10      29.91F
TALLAHASSEE    MOSUNNY   75  62  64 S10       29.92F
$$
...ALONG THE SOUTHEAST COAST TO THE KEYS...

CITY           SKY/WX    TMP DP  RH WIND       PRES   REMARKS
STUART         MOSUNNY   81  61  50 E7        29.95F
WEST PALM BCH  MOSUNNY   80  62  54 E9        29.94F
MIAMI          MOSUNNY   82  65  56 E10       29.92F
KEY WEST       MOSUNNY   79  64  60 E8        29.93F
$$
...MARINE REPORTS...

STATION/POSITION TIME  TEMP    WIND        PRES    WAVE   SWELL
                       AIR SEA DIR/SP/G            HT/PER HT/PER
                 (UTC) (F)     (DEG/KT/KT) (MB)    (FT/S) (FT/S)
ST AUGUSTINE FP  2000   70 69  140/  8/  9 1013.7F
20NM E CAPE CANA 1950   74 75  270/  4/  6 1013.9F   4/12   3/12
SEBASTIAN INLET  2000   73 74  100/  6     1014.0
6NM NE FPR INLET 1930      77                N/A     3/13   2/13
SETTLEMENT PT GB 2000   75      70/ 10/ 12 1014.0F
$$




USA.gov is the U.S. government's official web portal to all federal, state and local government web resources and services.